Date,TemperatureHighF,TemperatureAvgF,TemperatureLowF,DewpointHighF,DewpointAvgF,DewpointLowF,HumidityHigh,HumidityAvg,HumidityLow,PressureMaxIn,PressureMinIn,WindSpeedMaxMPH,WindSpeedAvgMPH,GustSpeedMaxMPH,PrecipitationSumIn
2013-3-1,31,24,18,14,11,3,72,59,43,0.00,40.00,11,8,19,0.00
2013-3-2,29,17,2,9,4,-3,83,59,38,0.00,40.00,8,5,15,0.00
2013-3-3,35,15,-6,9,-1,-11,86,54,24,0.00,40.00,7,3,11,0.00
2013-3-4,30,20,5,15,7,-5,76,58,38,0.00,40.00,12,8,20,0.00
2013-3-5,30,26,23,25,18,9,92,72,51,0.00,40.00,11,8,20,0.00
2013-3-6,33,25,16,22,18,10,86,73,53,0.00,40.00,11,7,16,0.00
2013-3-7,38,22,0,16,10,-4,85,63,34,0.00,40.00,6,3,9,0.00
2013-3-8,40,28,13,24,18,10,90,70,50,0.00,40.00,10,7,15,0.00
2013-3-9,37,33,29,35,29,23,100,86,75,0.00,40.00,11,8,19,0.22
2013-3-10,37,35,30,36,34,30,100,96,85,0.00,40.00,16,8,26,0.35
2013-3-11,32,28,24,31,27,19,100,95,82,0.00,40.00,16,9,26,0.28
2013-3-12,30,25,19,22,18,11,90,75,58,0.00,40.00,15,9,23,0.01
2013-3-13,32,22,15,13,6,0,83,55,27,0.00,40.00,13,9,19,0.01
2013-3-14,34,22,4,26,13,1,92,72,46,0.00,40.00,9,4,12,0.00
2013-3-15,37,30,23,31,27,22,100,90,70,0.00,40.00,11,5,19,0.05
2013-3-16,26,21,15,25,13,4,97,70,50,0.00,40.00,13,8,19,0.03
2013-3-17,27,17,5,11,3,-3,72,55,39,0.00,40.00,11,8,19,0.03
2013-3-18,30,22,15,28,18,9,95,85,72,0.00,40.00,14,8,25,0.06
2013-3-19,25,17,11,11,5,-1,82,60,43,0.00,40.00,21,16,33,0.03
2013-3-20,18,10,3,2,-2,-8,70,56,47,0.00,40.00,16,11,28,0.00
2013-3-21,26,14,0,9,3,-5,79,62,46,0.00,40.00,9,6,15,0.00
2013-3-22,36,20,-1,16,8,-6,86,63,41,0.00,40.00,8,4,13,0.00
2013-3-23,43,28,11,22,16,8,90,64,38,0.00,40.00,5,3,10,0.00
2013-3-24,35,30,27,22,20,18,79,68,54,0.00,40.00,14,8,22,0.00
2013-3-25,39,29,20,23,19,14,86,67,45,0.00,40.00,12,9,22,0.00
2013-3-26,41,32,26,24,20,16,79,62,44,0.00,40.00,10,6,17,0.00
2013-3-27,42,35,29,24,20,16,75,57,34,0.00,40.00,10,5,16,0.00
2013-3-28,44,40,28,17,16,14,60,38,30,0.00,40.00,9,6,14,0.00
2013-3-29,50,36,15,29,18,13,91,55,26,0.00,40.00,7,3,10,0.00
2013-3-30,40,37,33,40,30,-100,100,81,52,0.00,40.00,13,7,17,0.37
2013-3-31,38,34,27,36,27,14,100,77,42,0.00,40.00,19,10,33,0.02